{"data":{"norad_id":62796,"intl_designator":"2025-016M","name":"QIANFAN-66","alt_names":[],"object_type":"PAYLOAD","status":"ACTIVE","operator":null,"country":"PRC","launch_date":"2025-01-23","launch_site_code":"TAISC","launch_vehicle":null,"mission":null,"orbit_class":"UNKNOWN","rcs_meters":null,"size_class":null,"mass_kg":null,"dimensions":null,"purposes":[],"wikipedia_slug":null,"has_3d_model":false,"image_url":null,"decayed_at":null,"tle_current":{"epoch":"2026-09-22T20:45:04.008672Z","epoch_age_seconds":113919,"freshness":"FRESH","line1":"1 62796U 25016M   26265.86462973  .00000059  00000+0  72955-4 0  9995","line2":"2 62796  88.9676  73.5358 0013524 233.8474 126.1426 13.51020030 85654","mean_motion":13.5102003,"eccentricity":0.0013524,"inclination_deg":88.9676,"raan_deg":73.5358,"arg_perigee_deg":233.8474,"mean_anomaly_deg":126.1426,"bstar":7.2955e-5,"rev_number":8565,"period_min":106.58613255349,"perigee_km":1058.4371398418,"apogee_km":1078.5788251905,"semimajor_km":7446.6449825161,"source":"CELESTRAK","updated_at":"2026-09-23T09:00:21.636389Z"}}}